Previsão horária em Al Mahwit

Hoje, 26 Janeiro, Terça-feira

Tempo Temperatura Precipitação Vento Pressão Humidade
00:00 +19°C° 0 mm 0 m/s 659 mmHg 62%
01:00 +19°C° 0 mm 0 m/s 658 mmHg 63%
02:00 +19°C° 0 mm 0 m/s 658 mmHg 64%
03:00 +20°C° 0 mm 1 m/s 658 mmHg 66%
04:00 +20°C° 0 mm 1 m/s 658 mmHg 68%
05:00 +17°C° 0 mm 0 m/s 658 mmHg 69%
06:00 +17°C° 0 mm 0 m/s 658 mmHg 71%
07:00 +20°C° 0 mm 1 m/s 658 mmHg 66%
08:00 +21°C° 0 mm 1 m/s 659 mmHg 62%
09:00 +22°C° 0 mm 1 m/s 659 mmHg 57%
10:00 +23°C° 0 mm 2 m/s 659 mmHg 56%
11:00 +24°C° 0 mm 2 m/s 659 mmHg 54%
12:00 +24°C° 0 mm 3 m/s 659 mmHg 52%
13:00 +25°C° 0 mm 3 m/s 658 mmHg 54%
14:00 +25°C° 0 mm 3 m/s 658 mmHg 55%
15:00 +25°C° 0 mm 3 m/s 657 mmHg 56%
16:00 +24°C° 0 mm 3 m/s 657 mmHg 58%
17:00 +24°C° 0 mm 2 m/s 658 mmHg 60%
18:00 +23°C° 0 mm 2 m/s 658 mmHg 62%
19:00 +23°C° 0 mm 2 m/s 658 mmHg 62%
20:00 +22°C° 0 mm 1 m/s 658 mmHg 63%
21:00 +22°C° 0 mm 1 m/s 659 mmHg 63%
22:00 +22°C° 0 mm 1 m/s 658 mmHg 61%
23:00 +21°C° 0 mm 1 m/s 658 mmHg 59%

Amanhã, 27 Janeiro, Quarta-feira

Tempo Temperatura Precipitação Vento Pressão Humidade
00:00 +21°C° 0 mm 1 m/s 658 mmHg 57%
01:00 +21°C° 0 mm 1 m/s 658 mmHg 59%
02:00 +20°C° 0 mm 1 m/s 657 mmHg 60%
03:00 +18°C° 0 mm 0 m/s 657 mmHg 62%
04:00 +17°C° 0 mm 0 m/s 657 mmHg 60%
05:00 +17°C° 0 mm 0 m/s 657 mmHg 58%
06:00 +17°C° 0 mm 0 m/s 657 mmHg 57%
07:00 +18°C° 0 mm 0 m/s 658 mmHg 51%
08:00 +21°C° 0 mm 1 m/s 659 mmHg 45%
09:00 +23°C° 0 mm 1 m/s 659 mmHg 38%
10:00 +24°C° 0 mm 1 m/s 659 mmHg 38%
11:00 +25°C° 0 mm 2 m/s 659 mmHg 37%
12:00 +25°C° 0 mm 3 m/s 659 mmHg 36%
13:00 +26°C° 0 mm 3 m/s 658 mmHg 38%
14:00 +26°C° 0 mm 3 m/s 658 mmHg 41%
15:00 +26°C° 0 mm 3 m/s 657 mmHg 43%
16:00 +25°C° 0 mm 3 m/s 657 mmHg 47%
17:00 +24°C° 0 mm 2 m/s 657 mmHg 50%
18:00 +24°C° 0 mm 2 m/s 658 mmHg 54%
19:00 +23°C° 0 mm 2 m/s 658 mmHg 55%
20:00 +23°C° 0 mm 1 m/s 658 mmHg 57%
21:00 +22°C° 0 mm 1 m/s 659 mmHg 58%
22:00 +22°C° 0 mm 1 m/s 658 mmHg 57%
23:00 +22°C° 0 mm 1 m/s 658 mmHg 56%

Depois de amanhã, 28 Janeiro, Quinta-feira

Tempo Temperatura Precipitação Vento Pressão Humidade
00:00 +21°C° 0 mm 1 m/s 658 mmHg 55%
01:00 +21°C° 0 mm 1 m/s 658 mmHg 55%
02:00 +19°C° 0 mm 0 m/s 657 mmHg 55%
03:00 +18°C° 0 mm 0 m/s 657 mmHg 55%
04:00 +18°C° 0 mm 0 m/s 657 mmHg 55%
05:00 +17°C° 0 mm 0 m/s 657 mmHg 54%
06:00 +17°C° 0 mm 0 m/s 657 mmHg 54%
07:00 +18°C° 0 mm 0 m/s 658 mmHg 50%
08:00 +22°C° 0 mm 1 m/s 658 mmHg 45%
09:00 +23°C° 0 mm 1 m/s 659 mmHg 41%
10:00 +24°C° 0 mm 1 m/s 659 mmHg 40%
11:00 +25°C° 0 mm 2 m/s 659 mmHg 38%
12:00 +26°C° 0 mm 3 m/s 658 mmHg 37%
13:00 +26°C° 0 mm 3 m/s 658 mmHg 38%
14:00 +26°C° 0 mm 3 m/s 657 mmHg 38%
15:00 +27°C° 0 mm 3 m/s 657 mmHg 39%
16:00 +26°C° 0 mm 3 m/s 657 mmHg 43%
17:00 +25°C° 0 mm 3 m/s 657 mmHg 47%
18:00 +24°C° 0 mm 2 m/s 657 mmHg 51%
19:00 +23°C° 0 mm 2 m/s 658 mmHg 53%
20:00 +23°C° 0 mm 1 m/s 658 mmHg 56%
21:00 +22°C° 0 mm 1 m/s 658 mmHg 58%
22:00 +22°C° 0 mm 1 m/s 658 mmHg 57%
23:00 +20°C° 0 mm 0 m/s 658 mmHg 56%

29 Janeiro, Sexta-feira

Tempo Temperatura Precipitação Vento Pressão Humidade
00:00 +20°C° 0 mm 0 m/s 658 mmHg 55%
01:00 +19°C° 0 mm 0 m/s 657 mmHg 56%
02:00 +19°C° 0 mm 0 m/s 657 mmHg 57%
03:00 +18°C° 0 mm 0 m/s 657 mmHg 59%
04:00 +18°C° 0 mm 0 m/s 657 mmHg 60%
05:00 +18°C° 0 mm 0 m/s 657 mmHg 61%
06:00 +17°C° 0 mm 0 m/s 657 mmHg 62%
07:00 +19°C° 0 mm 0 m/s 658 mmHg 57%
08:00 +22°C° 0 mm 1 m/s 658 mmHg 52%
09:00 +23°C° 0 mm 1 m/s 659 mmHg 47%
10:00 +24°C° 0 mm 2 m/s 659 mmHg 46%
11:00 +25°C° 0 mm 2 m/s 659 mmHg 44%
12:00 +26°C° 0 mm 3 m/s 659 mmHg 43%
13:00 +26°C° 0 mm 3 m/s 658 mmHg 43%
14:00 +26°C° 0 mm 3 m/s 658 mmHg 44%
15:00 +26°C° 0 mm 3 m/s 657 mmHg 44%
16:00 +25°C° 0 mm 3 m/s 657 mmHg 47%
17:00 +25°C° 0 mm 3 m/s 657 mmHg 50%
18:00 +24°C° 0 mm 2 m/s 657 mmHg 53%
19:00 +23°C° 0 mm 2 m/s 658 mmHg 56%
20:00 +23°C° 0 mm 1 m/s 658 mmHg 59%
21:00 +20°C° 0 mm 0 m/s 658 mmHg 62%
22:00 +20°C° 0 mm 0 m/s 658 mmHg 63%
23:00 +20°C° 0 mm 0 m/s 658 mmHg 63%

30 Janeiro, Sábado

Tempo Temperatura Precipitação Vento Pressão Humidade
00:00 +20°C° 0 mm 0 m/s 658 mmHg 64%
01:00 +19°C° 0 mm 0 m/s 657 mmHg 66%
02:00 +19°C° 0 mm 0 m/s 657 mmHg 69%
03:00 +18°C° 0 mm 0 m/s 657 mmHg 71%
04:00 +18°C° 0 mm 0 m/s 657 mmHg 73%
05:00 +18°C° 0 mm 0 m/s 657 mmHg 75%
06:00 +17°C° 0 mm 0 m/s 657 mmHg 76%
07:00 +20°C° 0 mm 1 m/s 657 mmHg 72%
08:00 +21°C° 0 mm 1 m/s 658 mmHg 67%
09:00 +21°C° 0 mm 2 m/s 658 mmHg 62%
10:00 +23°C° 0 mm 2 m/s 658 mmHg 60%
11:00 +22°C° 0 mm 3 m/s 658 mmHg 57%
12:00 +24°C° 0 mm 3 m/s 658 mmHg 55%
13:00 +24°C° 0 mm 3 m/s 657 mmHg 54%
14:00 +25°C° 0 mm 3 m/s 657 mmHg 52%
15:00 +25°C° 0 mm 4 m/s 657 mmHg 51%
16:00 +24°C° 0 mm 3 m/s 657 mmHg 56%
17:00 +24°C° 0 mm 3 m/s 657 mmHg 61%
18:00 +23°C° 0 mm 2 m/s 657 mmHg 66%
19:00 +21°C° 0 mm 2 m/s 657 mmHg 70%
20:00 +22°C° 0 mm 1 m/s 658 mmHg 73%
21:00 +21°C° 0 mm 1 m/s 658 mmHg 77%
22:00 +21°C° 0 mm 1 m/s 658 mmHg 77%
23:00 +19°C° 0 mm 0 m/s 658 mmHg 77%

31 Janeiro, Domingo

Tempo Temperatura Precipitação Vento Pressão Humidade
00:00 +19°C° 0 mm 0 m/s 657 mmHg 77%
01:00 +18°C° 0 mm 0 m/s 657 mmHg 78%
02:00 +20°C° 0 mm 1 m/s 657 mmHg 80%
03:00 +19°C° 0 mm 1 m/s 656 mmHg 81%
04:00 +19°C° 0 mm 1 m/s 656 mmHg 81%
05:00 +19°C° 0 mm 1 m/s 657 mmHg 80%
06:00 +19°C° 0 mm 1 m/s 657 mmHg 80%
07:00 +20°C° 0 mm 1 m/s 657 mmHg 76%
08:00 +20°C° 0 mm 1 m/s 657 mmHg 71%
09:00 +21°C° 0 mm 1 m/s 658 mmHg 67%
10:00 +21°C° 0 mm 2 m/s 658 mmHg 63%
11:00 +23°C° 0 mm 2 m/s 658 mmHg 60%
12:00 +24°C° 0 mm 3 m/s 658 mmHg 56%
13:00 +24°C° 0 mm 3 m/s 657 mmHg 60%
14:00 +24°C° 0 mm 3 m/s 657 mmHg 63%
15:00 +22°C° 0 mm 3 m/s 656 mmHg 66%
16:00 +23°C° 0 mm 2 m/s 657 mmHg 68%
17:00 +21°C° 0 mm 2 m/s 657 mmHg 71%
18:00 +21°C° 0 mm 2 m/s 657 mmHg 73%
19:00 +21°C° 0 mm 2 m/s 657 mmHg 72%
20:00 +22°C° 0 mm 1 m/s 658 mmHg 71%
21:00 +21°C° 0 mm 1 m/s 659 mmHg 71%
22:00 +21°C° 0 mm 1 m/s 658 mmHg 69%
23:00 +21°C° 0 mm 1 m/s 658 mmHg 67%
Mostrar mais

Necessitamos do seu Consentimento

A Meteoprog e os seus Fornecedores de Serviços podem armazenar e aceder a dados pessoais como cookies, identificadores do dispositivo ou outras tecnologias semelhantes existentes no seu dispositivo e processar estes dados para personalizar conteúdos e anúncios, assim como funcionalidades nas redes sociais e análise de tráfego.

  • Armazenar e/ou aceder a informações no seu dispositivo

    Os cookies, identificadores do dispositivo ou outras informações podem ser armazenados ou acedidos no seu dispositivo, para os fins acima indicados.

  • Anúncios e conteúdos personalizados, medição de anúncios e conteúdos, dados sobre o público-alvo e desenvolvimento de produtos

    Os anúncios e os conteúdos podem ser personalizados com base num perfil. Podem ser adicionados dados adicionais para uma maior personalização dos anúncios e dos conteúdos. A eficácia dos anúncios e dos conteúdos pode ser medida. Podem ser obtidas informações sobre o público que visualizou os anúncios e os conteúdos. Estes dados podem ser usados para desenvolver ou melhorar sistemas, softwares ou a experiência do utilizador.

Ao clicar em "Eu concordo”, permitirá o uso de cookies, identificadores do dispositivo e web beacons mencionados ou outras tecnologias semelhantes. As configurações do navegador do seu dispositivo podem ser alteradas.

Para certos fins, podem ser invocados interesses legítimos ao invés de consentimento. Pode ler mais informação sobre este assunto na nossa Política de Privacidade e Cookies.